DW6282 Weather Reports


time (UTC)temp
F
wind
direction
speed
knots
gust
knots
rain 1hr
in
rain 24hr
in
rain mn
in
humidity
%
barometer
mb
20260510130020 77 212 0.0 0.9 0.00 0.01 0.00 92 1011.7
20260510124516 77 212 0.0 0.9 0.00 0.01 0.00 93 1011.5
20260510123014 76 212 0.0 0.9 0.00 0.01 0.00 93 1011.1
20260510121511 76 212 0.0 1.7 0.00 0.01 0.00 93 1010.8
20260510120008 76 207 0.0 1.7 0.00 0.01 0.00 93 1010.7
20260510114507 76 197 0.0 2.6 0.00 0.01 0.00 94 1010.6
20260510113003 76 212 0.0 3.5 0.00 0.01 0.00 93 1010.2
20260510111502 76 203 0.0 2.6 0.00 0.01 0.00 93 1010.1
20260510110003 76 164 0.0 2.6 0.00 0.01 0.00 94 1009.8
20260510104502 75 191 0.9 4.3 0.00 0.01 0.00 94 1009.7
20260510103100 75 217 0.9 3.5 0.00 0.01 0.00 94 1009.6
20260510101600 75 196 0.9 3.5 0.00 0.01 0.00 94 1009.4
20260510100105 75 215 0.9 5.2 0.00 0.01 0.00 94 1009.4
20260510094559 75 202 0.9 3.5 0.00 0.01 0.00 94 1009.3
20260510093100 75 148 0.9 2.6 0.00 0.01 0.00 94 1009.4
20260510091557 75 212 0.0 2.6 0.00 0.01 0.00 94 1009.5
20260510090058 75 212 0.9 3.5 0.00 0.01 0.00 95 1009.5
20260510084556 74 204 0.0 1.7 0.00 0.01 0.00 95 1009.5
20260510083054 74 205 0.0 3.5 0.00 0.01 0.00 94 1009.4
20260510081620 74 201 0.0 3.5 0.00 0.01 0.00 94 1009.3
20260510080055 74 210 0.0 3.5 0.00 0.01 0.00 94 1009.3
20260510074554 74 210 0.0 1.7 0.00 0.01 0.00 94 1009.1
20260510073051 75 198 0.9 4.3 0.00 0.01 0.00 94 1009.2
20260510071550 75 198 0.9 2.6 0.00 0.01 0.00 94 1009.1
20260510070048 75 195 0.0 3.5 0.00 0.01 0.00 94 1009.2
20260510064546 75 197 0.9 3.5 0.00 0.01 0.00 93 1009.3
20260510063044 75 195 1.7 4.3 0.00 0.01 0.00 93 1009.5
20260510061542 75 204 1.7 4.3 0.00 0.01 0.00 92 1009.6
20260510060050 75 186 0.9 7.0 0.00 0.01 0.00 91 1009.6
20260510054539 76 201 0.9 5.2 0.00 0.01 0.00 91 1009.8
20260510053037 76 206 0.9 4.3 0.00 0.01 0.00 91 1009.8
20260510051542 75 214 0.0 2.6 0.00 0.01 0.00 93 1010.1
20260510050033 76 159 0.0 1.7 0.00 0.01 0.00 93 1010.2
20260510044536 76 238 0.0 2.6 0.00 0.01 0.01 93 1010.2
20260510043035 76 281 0.0 2.6 0.00 0.01 0.01 93 1010.5
20260510041531 76 113 0.0 2.6 0.00 0.01 0.01 93 1010.5
20260510040030 76 226 0.0 0.9 0.00 0.01 0.01 93 1010.6
20260510034529 76 231 0.0 6.1 0.00 0.01 0.01 93 1010.0
20260510033027 77 133 0.0 1.7 0.00 0.01 0.01 93 1010.3
20260510031538 77 140 0.0 3.5 0.00 0.01 0.01 93 1010.3
20260510030024 76 99 0.9 3.5 0.00 0.01 0.01 93 1010.1
20260510024521 76 88 0.0 2.6 0.01 0.01 0.01 93 1009.7
20260510023036 76 304 0.0 1.7 0.01 0.01 0.01 93 1009.6
20260510021519 76 96 0.0 0.9 0.01 0.01 0.01 90 1009.4
20260510020016 76 207 0.0 1.7 0.01 0.01 0.01 88 1008.6
20260510014516 78 219 0.9 3.5 0.00 0.00 0.00 86 1008.2
20260510013015 79 211 0.0 2.6 0.00 0.00 0.00 84 1008.1
20260510011521 80 207 0.0 5.2 0.00 0.00 0.00 82 1007.8
20260510010020 81 205 0.9 3.5 0.00 0.00 0.00 80 1007.2
20260510004513 82 192 1.7 6.1 0.00 0.00 0.00 78 1007.3
20260510003014 83 226 1.7 9.6 0.00 0.00 0.00 76 1007.2
20260510001515 85 214 1.7 6.1 0.00 0.00 0.00 70 1007.1
20260510000011 88 200 0.9 4.3 0.00 0.00 0.00 62 1006.8
20260509234511 89 208 0.9 5.2 0.00 0.00 0.00 61 1006.6
20260509233010 90 215 1.7 6.1 0.00 0.00 0.00 60 1006.6
20260509231509 91 210 0.9 6.1 0.00 0.00 0.00 57 1006.6
20260509230008 92 203 0.9 7.0 0.00 0.00 0.00 61 1006.5
20260509224507 93 214 0.0 4.3 0.00 0.00 0.00 68 1006.4
20260509223006 94 352 0.0 3.5 0.00 0.00 0.00 69 1006.3
20260509221506 93 175 0.0 2.6 0.00 0.00 0.00 63 1006.3
20260509220004 94 139 0.0 3.5 0.00 0.00 0.00 63 1006.2
20260509214502 93 210 0.9 2.6 0.00 0.00 0.00 62 1006.2
20260509213116 92 238 0.0 1.7 0.00 0.00 0.00 69 1006.2
20260509211614 92 276 0.0 2.6 0.00 0.00 0.00 64 1006.2
20260509210059 92 166 0.0 1.7 0.00 0.00 0.00 68 1006.2
20260509204600 91 217 0.9 2.6 0.00 0.00 0.00 65 1006.4
20260509203057 91 143 0.0 3.5 0.00 0.00 0.00 70 1006.6
20260509201547 91 172 0.0 2.6 0.00 0.00 0.00 69 1006.8
20260509200045 91 219 0.0 1.7 0.00 0.00 0.00 66 1006.9
20260509194544 90 219 0.0 4.3 0.00 0.00 0.00 72 1007.0
20260509193038 88 325 0.0 1.7 0.00 0.00 0.00 74 1007.0
20260509191536 88 357 0.9 2.6 0.00 0.00 0.00 74 1007.2
20260509190044 88 9 1.7 4.3 0.00 0.00 0.00 78 1007.1
20260509184533 87 22 0.9 3.5 0.00 0.00 0.00 75 1007.5
20260509183035 85 14 0.9 5.2 0.00 0.00 0.00 80 1007.8
20260509181529 85 338 2.6 7.8 0.00 0.00 0.00 78 1008.0
20260509180028 85 285 1.7 4.3 0.00 0.00 0.00 80 1008.2
20260509174526 84 243 0.0 1.7 0.00 0.00 0.00 80 1008.7
20260509173025 84 243 0.0 3.5 0.00 0.00 0.00 80 1008.7
20260509171524 84 200 0.0 0.9 0.00 0.00 0.00 82 1008.9
20260509170024 84 158 0.0 1.7 0.00 0.00 0.00 83 1008.9
20260509164520 83 134 0.0 1.7 0.00 0.00 0.00 85 1009.0
20260509163023 83 165 0.0 1.7 0.00 0.00 0.00 85 1008.9
20260509161519 83 209 0.0 1.7 0.00 0.00 0.00 86 1009.0
20260509160014 81 217 0.0 2.6 0.00 0.00 0.00 87 1008.4
20260509154511 80 193 0.0 5.2 0.00 0.00 0.00 89 1008.6
20260509153016 79 198 0.0 1.7 0.00 0.00 0.00 90 1008.4
20260509151504 78 205 0.0 1.7 0.00 0.00 0.00 92 1008.8
20260509150005 78 205 0.0 0.0 0.00 0.00 0.00 91 1008.6
20260509144504 78 191 0.0 2.6 0.00 0.00 0.00 91 1008.6
20260509143002 78 155 0.0 0.9 0.00 0.00 0.00 91 1009.0
20260509141600 78 199 0.0 1.7 0.00 0.00 0.00 93 1009.0
20260509140114 77 242 0.0 0.9 0.00 0.00 0.00 97 1008.9
20260509134558 76 241 0.0 0.0 0.00 0.00 0.00 97 1008.5
20260509133103 76 241 0.0 0.0 0.00 0.00 0.00 97 1008.8
20260509131555 76 242 0.0 0.0 0.00 0.00 0.00 98 1008.8